Change the Weather History Date:

Saturday, February 21, 2009

  Actual Average Record
Temperature  
Mean Temperature 32 °F -  
Max Temperature 37 °F 41 °F 56 °F (1954)
Min Temperature 28 °F 25 °F -7 °F (1950)
Degree Days  
Heating Degree Days 32    
Moisture  
Dew Point 18 °F    
Average Humidity 55    
Maximum Humidity 75    
Minimum Humidity 42    
Precipitation  
Precipitation 0.00 in - - ()
Sea Level Pressure  
Sea Level Pressure 30.12 in    
Wind  
Wind Speed 15 mph (West)    
Max Wind Speed 21 mph    
Max Gust Speed 31 mph    
Visibility 10 miles    
Events      
Averages and records for this station are not official NWS values.
T = Trace of Precipitation, MM = Missing Value Source: NWS Daily Summary

Daily Weather History Graph

Daily Weather History Graph

Search for Another Location

Airport or City:

Trip Planner

Search our weather history database for the weather conditions in past years. The results will help you decide how hot, cold, wet, or windy it might be!

Date:

Astronomy

Feb. 21, 2009 Rise Set
Actual Time 6:28 AM EST 5:23 PM EST
Civil Twilight 6:00 AM EST 5:51 PM EST
Nautical Twilight 5:28 AM EST 6:24 PM EST
Astronomical Twilight 4:56 AM EST 6:56 PM EST
Moon 4:41 AM EST (2/21) 2:05 PM EST (2/21)
Length of Visible Light 11h 51m
Length of Day
10h 55m
Waning Crescent, 11% of the Moon is Illuminated
Feb 21
Waning Crescent
Feb 24
New
Mar 4
First Quarter
Mar 10
Full
Mar 18
Last Quarter

Hourly Weather History & Observations

Time (EST) Temp. Windchill Dew Point Humidity Pressure Visibility Wind Dir Wind Speed Gust Speed Precip Events Conditions
12:53 AM 30.0 °F 17.2 °F 12.9 °F 49% 29.88 in 10.0 mi West 20.7 mph 26.5 mph N/A   Clear
1:53 AM 30.0 °F 18.7 °F 12.9 °F 49% 29.90 in 10.0 mi West 16.1 mph 24.2 mph N/A   Clear
2:53 AM 30.0 °F 18.7 °F 14.0 °F 51% 29.93 in 10.0 mi West 16.1 mph 26.5 mph N/A   Clear
3:53 AM 28.9 °F 18.6 °F 15.1 °F 56% 29.95 in 10.0 mi West 12.7 mph 26.5 mph N/A   Clear
4:53 AM 28.9 °F 16.5 °F 15.1 °F 56% 29.99 in 10.0 mi West 18.4 mph 25.3 mph N/A   Clear
5:53 AM 28.9 °F 17.3 °F 15.1 °F 56% 30.01 in 10.0 mi West 16.1 mph 28.8 mph N/A   Clear
6:53 AM 28.9 °F 16.5 °F 15.1 °F 56% 30.05 in 10.0 mi West 18.4 mph 28.8 mph N/A   Clear
7:53 AM 30.0 °F 17.5 °F 16.0 °F 56% 30.09 in 10.0 mi West 19.6 mph 31.1 mph N/A   Clear
8:53 AM 32.0 °F 21.2 °F 16.0 °F 52% 30.10 in 10.0 mi West 16.1 mph 29.9 mph N/A   Clear
9:53 AM 33.1 °F 23.0 °F 16.0 °F 50% 30.12 in 10.0 mi WNW 15.0 mph 24.2 mph N/A   Clear
10:53 AM 34.0 °F 23.8 °F 16.0 °F 48% 30.13 in 10.0 mi West 16.1 mph 25.3 mph N/A   Clear
11:53 AM 37.0 °F 27.7 °F 16.0 °F 42% 30.13 in 10.0 mi West 16.1 mph 25.3 mph N/A   Clear
12:53 PM 37.0 °F 28.1 °F 16.0 °F 42% 30.14 in 10.0 mi West 15.0 mph 21.9 mph N/A   Clear
1:53 PM 37.9 °F 28.9 °F 18.0 °F 45% 30.15 in 10.0 mi West 16.1 mph 23.0 mph N/A   Clear
2:53 PM 37.9 °F 30.0 °F 19.9 °F 48% 30.17 in 10.0 mi West 12.7 mph 23.0 mph N/A   Clear
3:53 PM 37.0 °F 29.8 °F 19.9 °F 50% 30.19 in 10.0 mi West 10.4 mph - N/A   Clear
4:53 PM 35.1 °F 26.9 °F 21.0 °F 57% 30.19 in 10.0 mi WSW 11.5 mph - N/A   Clear
5:53 PM 33.1 °F 26.9 °F 21.0 °F 61% 30.22 in 10.0 mi WSW 6.9 mph - N/A   Clear
6:53 PM 32.0 °F 27.5 °F 21.0 °F 64% 30.26 in 10.0 mi WSW 4.6 mph - N/A   Clear
7:53 PM 30.9 °F 25.2 °F 19.9 °F 64% 30.27 in 10.0 mi WSW 5.8 mph - N/A   Clear
8:53 PM 30.9 °F 25.2 °F 19.0 °F 61% 30.28 in 10.0 mi WSW 5.8 mph - N/A   Clear
9:53 PM 32.0 °F 24.8 °F 21.9 °F 66% 30.27 in 10.0 mi WSW 8.1 mph - N/A   Clear
10:53 PM 32.0 °F 25.6 °F 23.0 °F 69% 30.28 in 10.0 mi WSW 6.9 mph - N/A   Clear
11:53 PM 30.0 °F - 23.0 °F 75% 30.27 in 10.0 mi Calm Calm - N/A   Clear